1998-067WG

Last updated on Wed Apr 17 2024 00:02:05 GMT+0000 (Coordinated Universal Time)

1 59507U 98067WG 24107.59193348 .00100133 00000+0 16451-2 0 9998 2 59507 51.6365 260.7838 0002736 114.4387 245.6889 15.51582359 886
UTC large
Height (km)
Speed (km/s)
/
Latitude / Longitude
Inclination (degrees)
Orbital Period (minutes)
Azimuth
Elevation
Range (km)
Doppler Factor

Next 0 passes for location: London (51.5072 / 0.1276)

Sorry there are no passes over London.